Simultaneous Nadir Overpasses (SNOs) Predictions

Prediction of SNOs between FY3D and METOP-A Satellite Orbit:

Table of predicted SNOs for the next 14.0 days since TLE Epoch: 11/19/2021
Index Date (FY3D) Time (FY3D) Lat,Lon (FY3D) SZA (FY3D ) Date (METOP-A) Time (METOP-A) Lat,Lon (METOP-A) SZA (METOP-A ) Distance(km) Time Diff (sec)
1 11/25/2021 21:34:04 77.79,-163.09 99.11 11/25/2021 21:35:09 77.80,-162.96 99.10 3.50 65
2 11/25/2021 22:24:49 -77.78, 4.27 80.90 11/25/2021 22:25:36 -77.76, 4.23 80.93 2.58 47
3 11/25/2021 23:15:36 77.77, 171.61 99.10 11/25/2021 23:15:59 77.76, 171.63 99.08 1.84 23
4 11/26/2021 00:06:21 -77.76, -21.03 80.91 11/26/2021 00:06:25 -77.75, -21.00 80.92 1.35 4
5 11/26/2021 00:57:08 77.76, 146.30 99.09 11/26/2021 00:56:48 77.75, 146.41 99.09 2.52 20
6 11/26/2021 01:47:53 -77.75, -46.33 80.92 11/26/2021 01:47:14 -77.75, -46.23 80.91 2.56 39
7 11/26/2021 02:38:40 77.74, 121.00 99.08 11/26/2021 02:37:38 77.71, 121.00 99.07 3.35 62
8 11/26/2021 03:29:18 -77.44, -70.25 81.28 11/26/2021 03:28:10 -77.44, -72.80 81.12 61.62 68



Historial Predications of SNOs between FY3D and METOP-A
